Information on these data can be found in provided Readme document
Contact Info: Zachary Fasnacht (zachary.fasnacht@ssaihq.com); Nickolay Krotkov (nickolay.a.krotkov@nasa.gov); Lok Lamsal (lok.lamsal@nasa.gov)

FillValue: -999.
ScaleFactor: 1e15
Units: molecules/cm^2

Date(yyyy-mm-dd),City,Country,LonCenter,LatCenter,BoundingCoordinates,Median,Q1,Q3,Mean,Baseline_Median,Baseline_Q1,Baseline_Q3,Baseline_Mean,NumGoodSamples,NumTotalSamples
2015-01-01,Suzhou,China,120.6001,31.3001,[120.1001 30.8001 121.1001 31.8001],22.908,14.645,29.568,23.146,23.002,17.08,28.683,24.046,152.0,549.0
2015-01-02,Suzhou,China,120.6001,31.3001,[120.1001 30.8001 121.1001 31.8001],24.203,15.492,30.504,24.016,22.957,17.008,28.364,23.906,180.0,557.0
2015-01-03,Suzhou,China,120.6001,31.3001,[120.1001 30.8001 121.1001 31.8001],24.203,15.492,30.386,23.741,23.521,17.419,29.304,24.316,174.0,558.0
2015-01-04,Suzhou,China,120.6001,31.3001,[120.1001 30.8001 121.1001 31.8001],24.625,15.946,31.678,24.684,23.762,17.538,29.991,24.745,197.0,544.0
2015-01-05,Suzhou,China,120.6001,31.3001,[120.1001 30.8001 121.1001 31.8001],24.289,15.81,31.627,24.438,23.253,17.721,28.209,24.036,195.0,549.0
2015-01-06,Suzhou,China,120.6001,31.3001,[120.1001 30.8001 121.1001 31.8001],24.289,15.81,31.627,24.438,23.472,17.487,28.522,23.722,195.0,535.0
2015-01-07,Suzhou,China,120.6001,31.3001,[120.1001 30.8001 121.1001 31.8001],27.293,22.449,33.173,28.089,23.915,19.766,28.485,24.853,158.0,540.0
2015-01-08,Suzhou,China,120.6001,31.3001,[120.1001 30.8001 121.1001 31.8001],27.035,22.449,32.258,27.456,23.923,19.498,29.656,24.885,125.0,542.0
2015-01-09,Suzhou,China,120.6001,31.3001,[120.1001 30.8001 121.1001 31.8001],27.035,22.449,32.258,27.456,24.194,20.102,30.015,25.205,125.0,557.0
2015-01-10,Suzhou,China,120.6001,31.3001,[120.1001 30.8001 121.1001 31.8001],26.302,22.14,32.024,26.768,21.729,17.452,26.953,22.497,99.0,525.0
2015-01-11,Suzhou,China,120.6001,31.3001,[120.1001 30.8001 121.1001 31.8001],26.901,22.235,32.371,27.64,21.933,17.74,27.204,22.852,105.0,523.0
2015-01-12,Suzhou,China,120.6001,31.3001,[120.1001 30.8001 121.1001 31.8001],30.126,23.849,33.923,29.321,23.009,18.393,27.701,23.619,85.0,538.0
2015-01-13,Suzhou,China,120.6001,31.3001,[120.1001 30.8001 121.1001 31.8001],30.126,23.849,33.923,29.321,21.725,17.161,25.537,22.493,85.0,513.0
2015-01-14,Suzhou,China,120.6001,31.3001,[120.1001 30.8001 121.1001 31.8001],30.126,23.849,33.923,29.321,21.555,17.007,25.345,22.413,85.0,516.0
2015-01-15,Suzhou,China,120.6001,31.3001,[120.1001 30.8001 121.1001 31.8001],29.628,22.789,33.772,29.187,21.642,16.888,25.517,22.448,90.0,513.0
2015-01-16,Suzhou,China,120.6001,31.3001,[120.1001 30.8001 121.1001 31.8001],32.181,26.298,38.306,33.201,21.106,15.669,26.131,22.284,62.0,527.0
2015-01-17,Suzhou,China,120.6001,31.3001,[120.1001 30.8001 121.1001 31.8001],32.181,25.023,38.157,33.296,21.773,15.954,27.469,22.718,42.0,522.0
2015-01-18,Suzhou,China,120.6001,31.3001,[120.1001 30.8001 121.1001 31.8001],32.181,25.023,38.157,33.296,19.3,14.009,25.924,20.791,42.0,527.0
2015-01-19,Suzhou,China,120.6001,31.3001,[120.1001 30.8001 121.1001 31.8001],34.547,29.628,39.904,34.377,18.565,12.86,25.617,19.959,19.0,528.0
2015-01-20,Suzhou,China,120.6001,31.3001,[120.1001 30.8001 121.1001 31.8001],34.547,29.628,39.904,34.377,18.011,12.257,24.31,19.331,19.0,516.0
2015-01-21,Suzhou,China,120.6001,31.3001,[120.1001 30.8001 121.1001 31.8001],34.547,29.628,39.904,34.377,17.644,12.179,24.062,19.095,19.0,526.0
2015-01-22,Suzhou,China,120.6001,31.3001,[120.1001 30.8001 121.1001 31.8001],34.547,29.628,39.904,34.377,17.253,11.802,22.675,18.499,19.0,510.0
2015-01-23,Suzhou,China,120.6001,31.3001,[120.1001 30.8001 121.1001 31.8001],34.547,29.628,39.904,34.377,17.207,11.894,22.918,18.565,19.0,515.0
2015-01-24,Suzhou,China,120.6001,31.3001,[120.1001 30.8001 121.1001 31.8001],34.278,22.574,38.157,33.201,17.173,11.735,23.107,18.678,22.0,517.0
2015-01-25,Suzhou,China,120.6001,31.3001,[120.1001 30.8001 121.1001 31.8001],34.278,22.574,38.157,33.201,17.874,12.419,23.494,19.207,22.0,559.0
2015-01-26,Suzhou,China,120.6001,31.3001,[120.1001 30.8001 121.1001 31.8001],30.751,22.241,34.547,29.521,17.661,12.423,24.658,19.982,16.0,553.0
2015-01-27,Suzhou,China,120.6001,31.3001,[120.1001 30.8001 121.1001 31.8001],30.751,22.241,34.547,29.521,16.753,12.55,23.102,18.771,16.0,547.0
2015-01-28,Suzhou,China,120.6001,31.3001,[120.1001 30.8001 121.1001 31.8001],30.751,22.241,34.547,29.521,18.573,11.386,25.527,19.629,16.0,563.0
2015-01-29,Suzhou,China,120.6001,31.3001,[120.1001 30.8001 121.1001 31.8001],21.016,14.373,26.55,21.913,17.776,11.228,24.888,19.17,35.0,540.0
2015-01-30,Suzhou,China,120.6001,31.3001,[120.1001 30.8001 121.1001 31.8001],21.134,14.045,26.55,21.953,17.717,12.56,23.92,19.538,30.0,544.0
2015-01-31,Suzhou,China,120.6001,31.3001,[120.1001 30.8001 121.1001 31.8001],21.134,16.261,26.11,23.454,18.172,13.036,23.489,19.871,64.0,538.0
2015-02-01,Suzhou,China,120.6001,31.3001,[120.1001 30.8001 121.1001 31.8001],20.033,15.961,25.715,22.505,16.019,12.115,20.547,18.267,56.0,551.0
2015-02-02,Suzhou,China,120.6001,31.3001,[120.1001 30.8001 121.1001 31.8001],19.383,15.191,25.715,20.917,16.886,13.257,21.678,19.166,84.0,548.0
2015-02-03,Suzhou,China,120.6001,31.3001,[120.1001 30.8001 121.1001 31.8001],19.793,15.191,25.715,20.929,16.496,11.895,21.357,18.146,114.0,555.0
2015-02-04,Suzhou,China,120.6001,31.3001,[120.1001 30.8001 121.1001 31.8001],19.793,15.191,25.715,20.929,17.095,12.17,21.694,18.5,114.0,553.0
2015-02-05,Suzhou,China,120.6001,31.3001,[120.1001 30.8001 121.1001 31.8001],20.033,16.261,25.715,21.139,17.348,12.495,21.495,18.356,137.0,539.0
2015-02-06,Suzhou,China,120.6001,31.3001,[120.1001 30.8001 121.1001 31.8001],20.033,16.261,25.715,21.139,17.05,12.7,21.502,18.211,137.0,549.0
2015-02-07,Suzhou,China,120.6001,31.3001,[120.1001 30.8001 121.1001 31.8001],18.525,14.084,24.142,19.945,16.763,12.132,21.327,18.36,152.0,534.0
2015-02-08,Suzhou,China,120.6001,31.3001,[120.1001 30.8001 121.1001 31.8001],18.431,14.084,24.02,19.818,16.731,12.15,21.254,18.291,149.0,538.0
2015-02-09,Suzhou,China,120.6001,31.3001,[120.1001 30.8001 121.1001 31.8001],18.229,13.626,23.487,19.429,17.037,12.143,21.06,18.245,153.0,538.0
2015-02-10,Suzhou,China,120.6001,31.3001,[120.1001 30.8001 121.1001 31.8001],18.037,13.348,23.097,18.994,16.502,11.588,22.384,18.007,185.0,552.0
2015-02-11,Suzhou,China,120.6001,31.3001,[120.1001 30.8001 121.1001 31.8001],18.037,13.348,23.097,18.994,16.449,11.688,22.899,18.311,185.0,521.0
2015-02-12,Suzhou,China,120.6001,31.3001,[120.1001 30.8001 121.1001 31.8001],17.259,11.534,22.831,18.036,15.67,10.732,22.558,17.351,209.0,517.0
2015-02-13,Suzhou,China,120.6001,31.3001,[120.1001 30.8001 121.1001 31.8001],17.547,10.434,23.247,18.131,16.045,10.549,23.337,17.703,190.0,531.0
2015-02-14,Suzhou,China,120.6001,31.3001,[120.1001 30.8001 121.1001 31.8001],17.547,10.434,23.247,18.131,15.215,9.568,22.561,17.069,190.0,506.0
2015-02-15,Suzhou,China,120.6001,31.3001,[120.1001 30.8001 121.1001 31.8001],15.782,8.81,21.145,15.632,14.581,9.105,22.002,16.381,156.0,514.0
2015-02-16,Suzhou,China,120.6001,31.3001,[120.1001 30.8001 121.1001 31.8001],15.782,8.81,21.145,15.632,14.144,8.957,22.221,16.569,156.0,512.0
2015-02-17,Suzhou,China,120.6001,31.3001,[120.1001 30.8001 121.1001 31.8001],13.626,9.351,19.94,15.054,14.625,9.39,22.133,16.962,128.0,526.0
2015-02-18,Suzhou,China,120.6001,31.3001,[120.1001 30.8001 121.1001 31.8001],11.534,8.762,18.037,13.878,17.183,12.292,23.589,19.057,98.0,522.0
2015-02-19,Suzhou,China,120.6001,31.3001,[120.1001 30.8001 121.1001 31.8001],11.534,8.762,18.037,13.878,17.157,12.709,23.24,19.113,98.0,531.0
2015-02-20,Suzhou,China,120.6001,31.3001,[120.1001 30.8001 121.1001 31.8001],10.381,8.343,13.626,11.18,17.221,13.314,23.273,19.319,75.0,530.0
2015-02-21,Suzhou,China,120.6001,31.3001,[120.1001 30.8001 121.1001 31.8001],10.381,8.343,13.626,11.18,17.71,13.349,24.194,20.081,75.0,517.0
2015-02-22,Suzhou,China,120.6001,31.3001,[120.1001 30.8001 121.1001 31.8001],9.74,7.31,11.328,10.375,18.862,14.102,24.927,20.43,60.0,525.0
2015-02-23,Suzhou,China,120.6001,31.3001,[120.1001 30.8001 121.1001 31.8001],9.923,7.931,11.328,10.502,19.118,13.85,25.208,20.503,64.0,510.0
2015-02-24,Suzhou,China,120.6001,31.3001,[120.1001 30.8001 121.1001 31.8001],10.23,7.298,12.621,10.694,18.809,13.573,26.178,20.752,60.0,516.0
2015-02-25,Suzhou,China,120.6001,31.3001,[120.1001 30.8001 121.1001 31.8001],8.644,5.627,11.167,8.424,17.6,12.745,24.824,20.179,28.0,519.0
2015-02-26,Suzhou,China,120.6001,31.3001,[120.1001 30.8001 121.1001 31.8001],8.644,5.627,11.167,8.424,17.74,12.825,24.695,20.188,28.0,561.0
2015-02-27,Suzhou,China,120.6001,31.3001,[120.1001 30.8001 121.1001 31.8001],12.621,11.201,12.742,11.894,19.538,13.735,27.48,21.761,4.0,557.0
2015-02-28,Suzhou,China,120.6001,31.3001,[120.1001 30.8001 121.1001 31.8001],12.621,11.201,12.742,12.094,20.497,14.2,29.107,23.395,5.0,555.0
2015-03-01,Suzhou,China,120.6001,31.3001,[120.1001 30.8001 121.1001 31.8001],12.621,11.201,12.742,12.094,20.375,14.451,29.278,23.448,5.0,570.0
2015-03-02,Suzhou,China,120.6001,31.3001,[120.1001 30.8001 121.1001 31.8001],12.621,11.201,12.742,12.094,20.174,13.713,28.096,22.835,5.0,544.0
2015-03-03,Suzhou,China,120.6001,31.3001,[120.1001 30.8001 121.1001 31.8001],12.621,11.201,12.742,12.094,20.084,13.924,27.032,22.153,5.0,548.0
2015-03-04,Suzhou,China,120.6001,31.3001,[120.1001 30.8001 121.1001 31.8001],12.742,11.201,19.493,14.48,20.459,13.848,26.878,22.072,7.0,545.0
2015-03-05,Suzhou,China,120.6001,31.3001,[120.1001 30.8001 121.1001 31.8001],12.742,11.201,19.493,14.48,20.156,13.918,25.184,21.363,7.0,559.0
2015-03-06,Suzhou,China,120.6001,31.3001,[120.1001 30.8001 121.1001 31.8001],23.49,13.951,29.438,23.307,20.138,13.912,26.066,21.64,14.0,554.0
2015-03-07,Suzhou,China,120.6001,31.3001,[120.1001 30.8001 121.1001 31.8001],23.49,13.951,29.438,23.307,20.26,14.007,26.268,21.849,14.0,561.0
2015-03-08,Suzhou,China,120.6001,31.3001,[120.1001 30.8001 121.1001 31.8001],23.49,13.951,29.438,23.307,21.213,15.066,26.576,22.661,14.0,559.0
2015-03-09,Suzhou,China,120.6001,31.3001,[120.1001 30.8001 121.1001 31.8001],23.49,13.951,29.438,23.307,20.778,14.87,26.77,22.346,14.0,545.0
2015-03-10,Suzhou,China,120.6001,31.3001,[120.1001 30.8001 121.1001 31.8001],28.908,23.49,33.641,26.987,21.145,16.391,27.513,22.901,10.0,553.0
2015-03-11,Suzhou,China,120.6001,31.3001,[120.1001 30.8001 121.1001 31.8001],28.908,23.49,33.641,26.987,21.674,16.04,27.213,23.064,10.0,539.0
2015-03-12,Suzhou,China,120.6001,31.3001,[120.1001 30.8001 121.1001 31.8001],28.908,23.49,33.641,26.987,21.929,16.598,27.539,23.42,10.0,545.0
2015-03-13,Suzhou,China,120.6001,31.3001,[120.1001 30.8001 121.1001 31.8001],28.908,23.49,33.641,26.987,21.898,16.119,27.544,23.294,10.0,544.0
2015-03-14,Suzhou,China,120.6001,31.3001,[120.1001 30.8001 121.1001 31.8001],28.908,19.493,34.389,28.552,22.495,17.007,30.127,24.105,42.0,556.0
2015-03-15,Suzhou,China,120.6001,31.3001,[120.1001 30.8001 121.1001 31.8001],28.908,19.493,34.389,28.769,21.879,15.364,27.987,22.992,41.0,522.0
2015-03-16,Suzhou,China,120.6001,31.3001,[120.1001 30.8001 121.1001 31.8001],29.185,20.553,36.982,29.109,21.763,15.417,27.918,22.952,42.0,519.0
2015-03-17,Suzhou,China,120.6001,31.3001,[120.1001 30.8001 121.1001 31.8001],29.185,20.553,36.982,29.109,22.458,17.08,28.114,23.645,42.0,534.0
2015-03-18,Suzhou,China,120.6001,31.3001,[120.1001 30.8001 121.1001 31.8001],20.395,17.267,29.438,24.085,22.921,17.72,29.555,24.489,61.0,509.0
2015-03-19,Suzhou,China,120.6001,31.3001,[120.1001 30.8001 121.1001 31.8001],20.553,16.769,29.438,24.234,23.714,17.493,30.83,25.111,59.0,513.0
2015-03-20,Suzhou,China,120.6001,31.3001,[120.1001 30.8001 121.1001 31.8001],20.553,16.769,29.438,24.234,24.509,17.915,32.084,25.953,59.0,512.0
2015-03-21,Suzhou,China,120.6001,31.3001,[120.1001 30.8001 121.1001 31.8001],18.548,15.505,26.034,23.14,21.408,16.206,30.53,24.279,52.0,527.0
2015-03-22,Suzhou,China,120.6001,31.3001,[120.1001 30.8001 121.1001 31.8001],18.548,14.576,26.437,21.972,21.122,16.006,30.16,24.028,66.0,522.0
2015-03-23,Suzhou,China,120.6001,31.3001,[120.1001 30.8001 121.1001 31.8001],18.548,14.576,26.437,21.972,20.438,15.185,29.728,23.391,66.0,532.0
2015-03-24,Suzhou,China,120.6001,31.3001,[120.1001 30.8001 121.1001 31.8001],18.548,14.576,26.437,21.972,20.563,15.232,28.659,22.813,66.0,534.0
2015-03-25,Suzhou,China,120.6001,31.3001,[120.1001 30.8001 121.1001 31.8001],18.548,15.505,26.437,22.024,19.526,15.07,28.029,22.337,76.0,519.0
2015-03-26,Suzhou,China,120.6001,31.3001,[120.1001 30.8001 121.1001 31.8001],18.548,15.505,26.437,22.024,19.383,14.822,28.197,22.131,76.0,529.0
2015-03-27,Suzhou,China,120.6001,31.3001,[120.1001 30.8001 121.1001 31.8001],18.548,15.505,26.437,22.024,17.83,13.561,27.734,21.488,76.0,512.0
2015-03-28,Suzhou,China,120.6001,31.3001,[120.1001 30.8001 121.1001 31.8001],18.548,15.505,26.437,22.024,17.764,13.946,27.766,21.57,76.0,519.0
2015-03-29,Suzhou,China,120.6001,31.3001,[120.1001 30.8001 121.1001 31.8001],18.367,15.451,23.042,19.639,17.059,13.465,25.685,20.239,44.0,519.0
2015-03-30,Suzhou,China,120.6001,31.3001,[120.1001 30.8001 121.1001 31.8001],18.367,15.451,23.042,19.639,16.817,13.29,24.777,19.531,44.0,560.0
2015-03-31,Suzhou,China,120.6001,31.3001,[120.1001 30.8001 121.1001 31.8001],18.234,15.451,22.857,19.237,16.847,12.737,24.021,18.904,43.0,554.0
2015-04-01,Suzhou,China,120.6001,31.3001,[120.1001 30.8001 121.1001 31.8001],18.837,16.039,25.004,20.489,16.591,12.43,23.364,18.561,68.0,548.0
2015-04-02,Suzhou,China,120.6001,31.3001,[120.1001 30.8001 121.1001 31.8001],21.024,16.879,27.565,22.355,16.529,12.303,23.582,18.643,51.0,563.0
2015-04-03,Suzhou,China,120.6001,31.3001,[120.1001 30.8001 121.1001 31.8001],23.655,18.678,30.148,24.167,16.655,12.535,21.134,17.752,70.0,537.0
2015-04-04,Suzhou,China,120.6001,31.3001,[120.1001 30.8001 121.1001 31.8001],23.655,18.678,30.148,24.167,16.617,12.545,21.184,17.872,70.0,541.0
2015-04-05,Suzhou,China,120.6001,31.3001,[120.1001 30.8001 121.1001 31.8001],16.87,9.93,25.004,18.142,16.471,11.411,21.919,17.703,109.0,538.0
2015-04-06,Suzhou,China,120.6001,31.3001,[120.1001 30.8001 121.1001 31.8001],16.87,9.815,24.956,18.091,16.346,11.315,22.027,17.577,111.0,555.0
2015-04-07,Suzhou,China,120.6001,31.3001,[120.1001 30.8001 121.1001 31.8001],17.442,10.087,25.004,18.532,16.467,11.29,21.999,17.641,129.0,550.0
2015-04-08,Suzhou,China,120.6001,31.3001,[120.1001 30.8001 121.1001 31.8001],17.795,10.087,24.899,18.522,16.277,11.035,22.215,17.547,141.0,557.0
2015-04-09,Suzhou,China,120.6001,31.3001,[120.1001 30.8001 121.1001 31.8001],17.431,10.041,23.863,18.106,16.114,10.873,21.611,17.289,135.0,560.0
2015-04-10,Suzhou,China,120.6001,31.3001,[120.1001 30.8001 121.1001 31.8001],14.677,10.071,22.756,17.532,15.063,10.879,21.027,16.959,156.0,542.0
2015-04-11,Suzhou,China,120.6001,31.3001,[120.1001 30.8001 121.1001 31.8001],14.677,10.071,22.756,17.532,15.245,11.28,20.939,16.89,156.0,551.0
2015-04-12,Suzhou,China,120.6001,31.3001,[120.1001 30.8001 121.1001 31.8001],14.677,10.071,22.756,17.532,15.063,10.909,20.355,16.542,156.0,536.0
2015-04-13,Suzhou,China,120.6001,31.3001,[120.1001 30.8001 121.1001 31.8001],14.677,10.071,22.756,17.532,14.566,10.47,19.8,16.059,156.0,542.0
2015-04-14,Suzhou,China,120.6001,31.3001,[120.1001 30.8001 121.1001 31.8001],18.381,10.323,23.39,18.006,15.514,10.529,20.178,16.288,181.0,544.0
2015-04-15,Suzhou,China,120.6001,31.3001,[120.1001 30.8001 121.1001 31.8001],18.381,10.592,23.439,18.199,15.228,10.51,19.912,16.139,214.0,558.0
2015-04-16,Suzhou,China,120.6001,31.3001,[120.1001 30.8001 121.1001 31.8001],17.795,10.271,22.756,17.664,15.265,10.496,20.01,16.145,189.0,527.0
2015-04-17,Suzhou,China,120.6001,31.3001,[120.1001 30.8001 121.1001 31.8001],17.687,10.271,22.756,17.51,14.835,10.36,18.998,15.527,187.0,490.0
2015-04-18,Suzhou,China,120.6001,31.3001,[120.1001 30.8001 121.1001 31.8001],14.604,10.087,20.459,16.353,14.116,10.394,18.692,15.473,189.0,506.0
2015-04-19,Suzhou,China,120.6001,31.3001,[120.1001 30.8001 121.1001 31.8001],14.063,10.041,20.15,15.82,13.976,10.351,18.539,15.225,208.0,480.0
2015-04-20,Suzhou,China,120.6001,31.3001,[120.1001 30.8001 121.1001 31.8001],17.853,11.658,21.657,17.752,14.218,10.505,18.053,15.009,169.0,483.0
2015-04-21,Suzhou,China,120.6001,31.3001,[120.1001 30.8001 121.1001 31.8001],15.352,11.167,20.194,16.404,13.662,10.432,17.839,14.732,187.0,477.0
2015-04-22,Suzhou,China,120.6001,31.3001,[120.1001 30.8001 121.1001 31.8001],14.531,10.747,19.384,15.771,13.158,9.845,17.573,14.317,172.0,491.0
2015-04-23,Suzhou,China,120.6001,31.3001,[120.1001 30.8001 121.1001 31.8001],14.063,10.113,20.194,16.08,12.8,9.617,17.139,14.144,190.0,486.0
2015-04-24,Suzhou,China,120.6001,31.3001,[120.1001 30.8001 121.1001 31.8001],13.809,9.725,19.448,15.536,12.571,9.547,16.612,13.819,215.0,493.0
2015-04-25,Suzhou,China,120.6001,31.3001,[120.1001 30.8001 121.1001 31.8001],13.879,9.329,20.194,15.723,12.376,9.438,16.376,13.592,194.0,498.0
2015-04-26,Suzhou,China,120.6001,31.3001,[120.1001 30.8001 121.1001 31.8001],13.36,9.228,19.244,15.333,12.109,9.288,15.992,13.435,217.0,485.0
2015-04-27,Suzhou,China,120.6001,31.3001,[120.1001 30.8001 121.1001 31.8001],13.36,9.228,19.244,15.333,12.134,9.196,16.153,13.494,217.0,493.0
2015-04-28,Suzhou,China,120.6001,31.3001,[120.1001 30.8001 121.1001 31.8001],13.099,8.405,18.833,14.551,12.232,8.97,16.735,13.488,245.0,481.0
2015-04-29,Suzhou,China,120.6001,31.3001,[120.1001 30.8001 121.1001 31.8001],12.064,8.141,16.698,13.651,11.945,8.942,16.041,13.2,220.0,485.0
2015-04-30,Suzhou,China,120.6001,31.3001,[120.1001 30.8001 121.1001 31.8001],11.169,7.454,15.157,12.535,11.803,8.616,15.758,12.976,219.0,487.0
2015-05-01,Suzhou,China,120.6001,31.3001,[120.1001 30.8001 121.1001 31.8001],11.169,7.454,15.157,12.535,12.156,8.681,16.181,13.179,219.0,530.0
2015-05-02,Suzhou,China,120.6001,31.3001,[120.1001 30.8001 121.1001 31.8001],11.169,7.454,15.157,12.535,12.342,8.645,16.414,13.41,219.0,557.0
2015-05-03,Suzhou,China,120.6001,31.3001,[120.1001 30.8001 121.1001 31.8001],10.609,7.107,14.802,12.046,11.661,8.478,15.772,12.806,216.0,551.0
2015-05-04,Suzhou,China,120.6001,31.3001,[120.1001 30.8001 121.1001 31.8001],10.385,6.935,14.815,12.087,11.544,8.522,15.741,12.742,197.0,565.0
2015-05-05,Suzhou,China,120.6001,31.3001,[120.1001 30.8001 121.1001 31.8001],9.439,6.59,14.706,11.594,11.147,8.319,15.589,12.493,216.0,542.0
2015-05-06,Suzhou,China,120.6001,31.3001,[120.1001 30.8001 121.1001 31.8001],8.72,6.234,14.341,11.2,10.91,8.04,15.295,12.187,182.0,548.0
2015-05-07,Suzhou,China,120.6001,31.3001,[120.1001 30.8001 121.1001 31.8001],8.996,6.394,14.706,11.329,11.093,8.159,15.366,12.207,183.0,538.0
2015-05-08,Suzhou,China,120.6001,31.3001,[120.1001 30.8001 121.1001 31.8001],8.711,6.234,13.725,9.992,10.748,7.822,14.828,11.535,153.0,552.0
2015-05-09,Suzhou,China,120.6001,31.3001,[120.1001 30.8001 121.1001 31.8001],8.996,6.565,13.952,10.331,10.557,7.638,14.791,11.452,145.0,547.0
2015-05-10,Suzhou,China,120.6001,31.3001,[120.1001 30.8001 121.1001 31.8001],8.996,6.565,13.952,10.348,10.666,7.771,15.292,11.704,149.0,554.0
2015-05-11,Suzhou,China,120.6001,31.3001,[120.1001 30.8001 121.1001 31.8001],8.758,6.406,13.952,10.213,10.608,7.886,15.173,11.612,126.0,555.0
2015-05-12,Suzhou,China,120.6001,31.3001,[120.1001 30.8001 121.1001 31.8001],8.996,6.565,13.993,10.403,10.491,7.702,14.953,11.58,144.0,543.0
2015-05-13,Suzhou,China,120.6001,31.3001,[120.1001 30.8001 121.1001 31.8001],8.72,6.387,13.725,9.952,10.609,7.685,14.92,11.601,116.0,549.0
2015-05-14,Suzhou,China,120.6001,31.3001,[120.1001 30.8001 121.1001 31.8001],10.323,6.924,14.413,10.934,10.714,7.474,14.778,11.553,145.0,538.0
2015-05-15,Suzhou,China,120.6001,31.3001,[120.1001 30.8001 121.1001 31.8001],11.309,7.324,14.497,11.345,10.544,7.327,14.39,11.399,113.0,543.0
2015-05-16,Suzhou,China,120.6001,31.3001,[120.1001 30.8001 121.1001 31.8001],11.309,7.324,14.497,11.345,10.365,7.241,13.766,11.137,113.0,544.0
2015-05-17,Suzhou,China,120.6001,31.3001,[120.1001 30.8001 121.1001 31.8001],11.167,7.349,14.538,11.486,10.251,7.116,13.656,10.857,133.0,559.0
2015-05-18,Suzhou,China,120.6001,31.3001,[120.1001 30.8001 121.1001 31.8001],11.366,7.849,14.538,11.769,10.093,7.084,13.726,10.809,115.0,528.0
2015-05-19,Suzhou,China,120.6001,31.3001,[120.1001 30.8001 121.1001 31.8001],11.309,7.844,14.538,11.6,10.45,7.169,13.813,11.013,120.0,525.0
2015-05-20,Suzhou,China,120.6001,31.3001,[120.1001 30.8001 121.1001 31.8001],12.139,8.314,14.934,12.611,10.536,7.212,13.747,11.175,101.0,541.0
2015-05-21,Suzhou,China,120.6001,31.3001,[120.1001 30.8001 121.1001 31.8001],12.139,8.314,14.934,12.611,10.426,7.648,13.572,11.236,101.0,516.0
2015-05-22,Suzhou,China,120.6001,31.3001,[120.1001 30.8001 121.1001 31.8001],11.748,8.314,15.034,12.494,10.438,7.571,13.644,11.4,97.0,525.0
2015-05-23,Suzhou,China,120.6001,31.3001,[120.1001 30.8001 121.1001 31.8001],11.748,8.314,15.034,12.494,11.099,7.958,14.259,11.928,97.0,521.0
2015-05-24,Suzhou,China,120.6001,31.3001,[120.1001 30.8001 121.1001 31.8001],12.139,8.394,16.165,12.881,11.219,8.084,14.464,12.061,96.0,536.0
2015-05-25,Suzhou,China,120.6001,31.3001,[120.1001 30.8001 121.1001 31.8001],10.514,7.932,15.314,11.921,10.519,7.662,14.046,11.654,116.0,530.0
2015-05-26,Suzhou,China,120.6001,31.3001,[120.1001 30.8001 121.1001 31.8001],10.514,7.932,15.314,11.921,10.578,7.734,14.164,11.654,116.0,537.0
2015-05-27,Suzhou,China,120.6001,31.3001,[120.1001 30.8001 121.1001 31.8001],10.323,7.479,15.314,11.788,10.352,7.517,13.902,11.449,98.0,538.0
2015-05-28,Suzhou,China,120.6001,31.3001,[120.1001 30.8001 121.1001 31.8001],10.625,7.674,16.189,12.372,9.923,7.383,13.549,11.138,103.0,524.0
2015-05-29,Suzhou,China,120.6001,31.3001,[120.1001 30.8001 121.1001 31.8001],8.759,6.091,14.323,11.45,9.811,7.132,13.084,11.001,74.0,531.0
2015-05-30,Suzhou,China,120.6001,31.3001,[120.1001 30.8001 121.1001 31.8001],8.803,7.663,12.717,10.676,9.699,7.618,12.852,10.984,102.0,519.0
2015-05-31,Suzhou,China,120.6001,31.3001,[120.1001 30.8001 121.1001 31.8001],8.803,7.663,12.717,10.676,9.658,7.775,12.67,10.936,102.0,522.0
2015-06-01,Suzhou,China,120.6001,31.3001,[120.1001 30.8001 121.1001 31.8001],8.788,7.441,12.717,10.399,9.743,7.698,12.602,10.915,82.0,523.0
2015-06-02,Suzhou,China,120.6001,31.3001,[120.1001 30.8001 121.1001 31.8001],8.788,7.441,12.717,10.399,9.784,7.845,12.811,11.026,82.0,566.0
2015-06-03,Suzhou,China,120.6001,31.3001,[120.1001 30.8001 121.1001 31.8001],8.803,7.663,12.717,10.579,9.463,7.48,12.195,10.715,78.0,562.0
2015-06-04,Suzhou,China,120.6001,31.3001,[120.1001 30.8001 121.1001 31.8001],8.788,7.511,12.717,10.487,9.355,7.38,12.211,10.562,85.0,556.0
2015-06-05,Suzhou,China,120.6001,31.3001,[120.1001 30.8001 121.1001 31.8001],8.803,7.511,12.602,10.38,9.468,7.357,12.324,10.67,107.0,571.0
2015-06-06,Suzhou,China,120.6001,31.3001,[120.1001 30.8001 121.1001 31.8001],8.803,7.511,12.602,10.38,9.279,7.381,11.902,10.279,107.0,548.0
2015-06-07,Suzhou,China,120.6001,31.3001,[120.1001 30.8001 121.1001 31.8001],8.803,7.511,12.602,10.38,9.576,7.524,13.004,10.678,107.0,553.0
2015-06-08,Suzhou,China,120.6001,31.3001,[120.1001 30.8001 121.1001 31.8001],8.788,7.531,11.763,10.166,9.587,7.511,12.751,10.602,87.0,548.0
2015-06-09,Suzhou,China,120.6001,31.3001,[120.1001 30.8001 121.1001 31.8001],9.491,7.679,11.763,10.704,9.449,7.373,12.401,10.518,63.0,561.0
2015-06-10,Suzhou,China,120.6001,31.3001,[120.1001 30.8001 121.1001 31.8001],9.491,7.679,11.763,10.704,9.46,7.385,12.189,10.427,63.0,556.0
2015-06-11,Suzhou,China,120.6001,31.3001,[120.1001 30.8001 121.1001 31.8001],9.289,7.679,11.763,10.682,9.854,7.615,12.816,10.634,66.0,562.0
2015-06-12,Suzhou,China,120.6001,31.3001,[120.1001 30.8001 121.1001 31.8001],9.208,7.679,11.763,9.883,9.969,7.944,13.339,10.753,76.0,564.0
2015-06-13,Suzhou,China,120.6001,31.3001,[120.1001 30.8001 121.1001 31.8001],8.972,7.679,11.763,9.885,9.949,7.941,13.239,10.74,81.0,548.0
2015-06-14,Suzhou,China,120.6001,31.3001,[120.1001 30.8001 121.1001 31.8001],9.208,7.154,12.045,9.855,10.112,8.035,13.453,10.946,53.0,553.0